When you browse on this site, cookies collect data to enhance your experience and personalize the content and advertising you see.
Visit our Privacy Policy to learn more. By continuing to use the site, you agree to this use of cookies and data.
  • In Hungary
  • List of Countries
  • For 7 days
  • Water Temperature
  • Satellite Maps
  • Weather Map
  • News
  • Weather Widgets
  • user-avatar
    Login

    Hourly Weather Koulamoutou

    Today, 15 December, Saturday

    Time Temperature Precipitation Wind Pressure Humidity
    00:00 +24°C° 0.2 mm 1 mps 734 mmHg 95%
    01:00 +24°C° 0.2 mm 1 mps 734 mmHg 95%
    02:00 +24°C° 0.1 mm 1 mps 734 mmHg 96%
    03:00 +24°C° 0.1 mm 1 mps 734 mmHg 96%
    04:00 +24°C° 0.1 mm 1 mps 734 mmHg 97%
    05:00 +24°C° 0 mm 1 mps 734 mmHg 96%
    06:00 +22°C° 0 mm 0 mps 735 mmHg 95%
    07:00 +22°C° 0 mm 0 mps 735 mmHg 94%
    08:00 +25°C° 0.1 mm 0 mps 735 mmHg 83%
    09:00 +28°C° 0.1 mm 0 mps 736 mmHg 71%
    10:00 +31°C° 0.1 mm 0 mps 736 mmHg 60%
    11:00 +32°C° 0.2 mm 0 mps 735 mmHg 55%
    12:00 +35°C° 0.2 mm 1 mps 735 mmHg 51%
    13:00 +36°C° 0.2 mm 1 mps 734 mmHg 46%
    14:00 +35°C° 0.2 mm 1 mps 733 mmHg 49%
    15:00 +35°C° 0.2 mm 1 mps 733 mmHg 51%
    16:00 +34°C° 0.2 mm 1 mps 732 mmHg 54%
    17:00 +32°C° 0.4 mm 1 mps 733 mmHg 64%
    18:00 +29°C° 0.4 mm 1 mps 733 mmHg 74%
    19:00 +27°C° 0.4 mm 1 mps 733 mmHg 84%
    20:00 +27°C° 0.2 mm 1 mps 734 mmHg 87%
    21:00 +26°C° 0.2 mm 1 mps 734 mmHg 89%
    22:00 +26°C° 0.2 mm 1 mps 735 mmHg 92%
    23:00 +25°C° 0 mm 1 mps 735 mmHg 92%

    Tomorrow, 16 December, Sunday

    Time Temperature Precipitation Wind Pressure Humidity
    00:00 +25°C° 0 mm 1 mps 735 mmHg 93%
    01:00 +25°C° 0 mm 1 mps 735 mmHg 93%
    02:00 +25°C° 0 mm 1 mps 735 mmHg 94%
    03:00 +25°C° 0 mm 1 mps 734 mmHg 94%
    04:00 +25°C° 0 mm 1 mps 734 mmHg 95%
    05:00 +25°C° 0 mm 1 mps 734 mmHg 94%
    06:00 +25°C° 0 mm 1 mps 735 mmHg 93%
    07:00 +25°C° 0 mm 1 mps 735 mmHg 92%
    08:00 +27°C° 0 mm 1 mps 735 mmHg 83%
    09:00 +29°C° 0 mm 1 mps 736 mmHg 75%
    10:00 +31°C° 0 mm 1 mps 736 mmHg 66%
    11:00 +31°C° 0.7 mm 1 mps 736 mmHg 66%
    12:00 +32°C° 0.7 mm 1 mps 735 mmHg 67%
    13:00 +32°C° 0.7 mm 1 mps 734 mmHg 67%
    14:00 +32°C° 0.5 mm 1 mps 734 mmHg 68%
    15:00 +32°C° 0.5 mm 1 mps 733 mmHg 69%
    16:00 +31°C° 0.5 mm 1 mps 733 mmHg 70%
    17:00 +30°C° 0.3 mm 1 mps 733 mmHg 77%
    18:00 +28°C° 0.3 mm 1 mps 734 mmHg 84%
    19:00 +26°C° 0.3 mm 1 mps 734 mmHg 91%
    20:00 +26°C° 0.4 mm 1 mps 735 mmHg 92%
    21:00 +26°C° 0.4 mm 1 mps 735 mmHg 94%
    22:00 +25°C° 0.4 mm 1 mps 736 mmHg 95%
    23:00 +25°C° 0.2 mm 1 mps 736 mmHg 96%

    Day after tomorrow, 17 December, Monday

    Time Temperature Precipitation Wind Pressure Humidity
    00:00 +24°C° 0.2 mm 1 mps 735 mmHg 96%
    01:00 +24°C° 0.2 mm 1 mps 735 mmHg 97%
    02:00 +24°C° 0 mm 1 mps 734 mmHg 96%
    03:00 +24°C° 0 mm 1 mps 734 mmHg 95%
    04:00 +24°C° 0 mm 1 mps 734 mmHg 95%
    05:00 +24°C° 0 mm 1 mps 734 mmHg 94%
    06:00 +24°C° 0 mm 1 mps 734 mmHg 93%
    07:00 +25°C° 0 mm 1 mps 734 mmHg 93%
    08:00 +27°C° 0 mm 1 mps 735 mmHg 83%
    09:00 +29°C° 0 mm 1 mps 735 mmHg 73%
    10:00 +31°C° 0 mm 1 mps 735 mmHg 63%
    11:00 +32°C° 0 mm 1 mps 735 mmHg 57%
    12:00 +33°C° 0 mm 1 mps 734 mmHg 52%
    13:00 +35°C° 0 mm 1 mps 733 mmHg 46%
    14:00 +34°C° 0 mm 1 mps 733 mmHg 48%
    15:00 +34°C° 0 mm 1 mps 732 mmHg 50%
    16:00 +33°C° 0 mm 1 mps 732 mmHg 52%
    17:00 +31°C° 0.1 mm 1 mps 732 mmHg 60%
    18:00 +29°C° 0.1 mm 1 mps 733 mmHg 69%
    19:00 +27°C° 0.1 mm 1 mps 733 mmHg 78%
    20:00 +27°C° 0.1 mm 1 mps 734 mmHg 82%
    21:00 +26°C° 0.1 mm 1 mps 734 mmHg 86%
    22:00 +24°C° 0.1 mm 0 mps 735 mmHg 90%
    23:00 +23°C° 0 mm 0 mps 734 mmHg 90%

    18 December, Tuesday

    Time Temperature Precipitation Wind Pressure Humidity
    00:00 +23°C° 0 mm 0 mps 734 mmHg 91%
    01:00 +23°C° 0 mm 0 mps 734 mmHg 91%
    02:00 +23°C° 0.1 mm 0 mps 734 mmHg 91%
    03:00 +22°C° 0.1 mm 0 mps 734 mmHg 92%
    04:00 +22°C° 0.1 mm 0 mps 734 mmHg 92%
    05:00 +25°C° 0 mm 1 mps 734 mmHg 91%
    06:00 +25°C° 0 mm 1 mps 734 mmHg 91%
    07:00 +25°C° 0 mm 1 mps 735 mmHg 90%
    08:00 +28°C° 0 mm 1 mps 735 mmHg 78%
    09:00 +31°C° 0 mm 1 mps 735 mmHg 66%
    10:00 +32°C° 0 mm 0 mps 735 mmHg 53%
    11:00 +35°C° 0 mm 1 mps 735 mmHg 48%
    12:00 +36°C° 0 mm 1 mps 734 mmHg 43%
    13:00 +37°C° 0 mm 1 mps 733 mmHg 37%
    14:00 +37°C° 0 mm 1 mps 732 mmHg 39%
    15:00 +36°C° 0 mm 1 mps 732 mmHg 40%
    16:00 +35°C° 0 mm 1 mps 731 mmHg 41%
    17:00 +33°C° 0.2 mm 1 mps 732 mmHg 51%
    18:00 +31°C° 0.2 mm 1 mps 732 mmHg 61%
    19:00 +28°C° 0.2 mm 1 mps 733 mmHg 71%
    20:00 +27°C° 0.3 mm 1 mps 733 mmHg 77%
    21:00 +26°C° 0.3 mm 1 mps 734 mmHg 84%
    22:00 +26°C° 0.3 mm 1 mps 734 mmHg 90%
    23:00 +25°C° 0.1 mm 1 mps 734 mmHg 91%

    19 December, Wednesday

    Time Temperature Precipitation Wind Pressure Humidity
    00:00 +25°C° 0.1 mm 1 mps 734 mmHg 92%
    01:00 +25°C° 0.1 mm 1 mps 734 mmHg 93%
    02:00 +25°C° 0 mm 1 mps 734 mmHg 93%
    03:00 +25°C° 0 mm 1 mps 734 mmHg 93%
    04:00 +25°C° 0 mm 1 mps 733 mmHg 93%
    05:00 +25°C° 0 mm 1 mps 734 mmHg 92%
    06:00 +25°C° 0 mm 1 mps 734 mmHg 92%
    07:00 +25°C° 0 mm 1 mps 735 mmHg 91%
    08:00 +27°C° 0 mm 1 mps 735 mmHg 84%
    09:00 +28°C° 0 mm 1 mps 735 mmHg 76%
    10:00 +30°C° 0 mm 1 mps 736 mmHg 69%
    11:00 +31°C° 0.2 mm 1 mps 735 mmHg 66%
    12:00 +32°C° 0.2 mm 1 mps 734 mmHg 62%
    13:00 +33°C° 0.2 mm 1 mps 733 mmHg 59%
    14:00 +33°C° 0.2 mm 1 mps 733 mmHg 59%
    15:00 +33°C° 0.2 mm 1 mps 732 mmHg 58%
    16:00 +33°C° 0.2 mm 1 mps 732 mmHg 58%
    17:00 +31°C° 0.6 mm 1 mps 732 mmHg 69%
    18:00 +28°C° 0.6 mm 1 mps 733 mmHg 80%
    19:00 +26°C° 0.6 mm 1 mps 733 mmHg 91%
    20:00 +26°C° 1 mm 1 mps 734 mmHg 92%
    21:00 +25°C° 1 mm 1 mps 734 mmHg 93%
    22:00 +25°C° 1 mm 1 mps 735 mmHg 95%
    23:00 +25°C° 0.1 mm 1 mps 734 mmHg 95%

    20 December, Thursday

    Time Temperature Precipitation Wind Pressure Humidity
    00:00 +24°C° 0.1 mm 1 mps 734 mmHg 96%
    01:00 +24°C° 0.1 mm 1 mps 734 mmHg 96%
    02:00 +24°C° 0 mm 1 mps 734 mmHg 96%
    03:00 +24°C° 0 mm 1 mps 733 mmHg 96%
    04:00 +24°C° 0 mm 1 mps 733 mmHg 95%
    05:00 +24°C° 0 mm 1 mps 733 mmHg 95%
    06:00 +24°C° 0 mm 1 mps 734 mmHg 94%
    07:00 +25°C° 0 mm 1 mps 734 mmHg 94%
    08:00 +27°C° 0 mm 1 mps 734 mmHg 82%
    09:00 +30°C° 0 mm 1 mps 734 mmHg 70%
    10:00 +32°C° 0 mm 1 mps 735 mmHg 58%
    11:00 +33°C° 0 mm 1 mps 734 mmHg 54%
    12:00 +34°C° 0 mm 1 mps 733 mmHg 49%
    13:00 +35°C° 0 mm 1 mps 732 mmHg 45%
    14:00 +35°C° 0.1 mm 1 mps 732 mmHg 48%
    15:00 +34°C° 0.1 mm 1 mps 731 mmHg 51%
    16:00 +34°C° 0.1 mm 1 mps 731 mmHg 53%
    17:00 +31°C° 0.2 mm 1 mps 731 mmHg 63%
    18:00 +29°C° 0.2 mm 1 mps 732 mmHg 73%
    19:00 +27°C° 0.2 mm 1 mps 732 mmHg 83%
    20:00 +26°C° 0.2 mm 1 mps 733 mmHg 86%
    21:00 +26°C° 0.2 mm 1 mps 733 mmHg 90%
    22:00 +25°C° 0.2 mm 1 mps 734 mmHg 93%
    23:00 +25°C° 0.2 mm 1 mps 734 mmHg 94%
    Show more